TimeMST,TemperatureF,Dew PointF,Humidity,Sea Level PressureIn,VisibilityMPH,Wind Direction,Wind SpeedMPH,Gust SpeedMPH,PrecipitationIn,Events,Conditions,WindDirDegrees,DateUTC
12:15 AM,53.6,37.4,54,29.63,10.0,SE,20.7,25.3,N/A,,Overcast,140,2012-12-02 07:15:00
12:35 AM,53.6,37.4,54,29.63,10.0,SSE,13.8,-,N/A,,Overcast,160,2012-12-02 07:35:00
12:55 AM,53.6,37.4,54,29.62,10.0,SSE,20.7,24.2,N/A,,Overcast,150,2012-12-02 07:55:00
1:15 AM,53.6,37.4,54,29.60,10.0,SE,15.0,-,N/A,,Overcast,140,2012-12-02 08:15:00
1:35 AM,51.8,37.4,58,29.58,10.0,SE,12.7,-,N/A,,Overcast,140,2012-12-02 08:35:00
1:55 AM,53.6,37.4,54,29.58,10.0,SSE,15.0,21.9,N/A,,Overcast,150,2012-12-02 08:55:00
2:15 AM,53.6,37.4,54,29.56,10.0,SE,13.8,-,N/A,,Overcast,140,2012-12-02 09:15:00
2:35 AM,51.8,37.4,58,29.55,10.0,SE,11.5,-,N/A,,Overcast,130,2012-12-02 09:35:00
2:55 AM,53.6,37.4,54,29.53,10.0,SE,13.8,-,N/A,,Overcast,130,2012-12-02 09:55:00
3:15 AM,53.6,37.4,54,29.52,10.0,SE,17.3,24.2,N/A,,Overcast,130,2012-12-02 10:15:00
3:35 AM,53.6,37.4,54,29.50,10.0,SE,13.8,-,N/A,,Mostly Cloudy,130,2012-12-02 10:35:00
3:55 AM,53.6,37.4,54,29.48,10.0,SE,13.8,18.4,N/A,,Mostly Cloudy,140,2012-12-02 10:55:00
4:15 AM,55.4,37.4,51,29.46,10.0,SE,16.1,20.7,N/A,,Scattered Clouds,130,2012-12-02 11:15:00
4:35 AM,55.4,37.4,51,29.47,10.0,South,6.9,-,N/A,,Partly Cloudy,180,2012-12-02 11:35:00
4:55 AM,55.4,37.4,51,29.45,10.0,SE,15.0,28.8,N/A,,Mostly Cloudy,140,2012-12-02 11:55:00
5:15 AM,60.8,37.4,42,29.43,10.0,South,24.2,31.1,N/A,,Scattered Clouds,170,2012-12-02 12:15:00
5:35 AM,62.6,37.4,39,29.42,10.0,SSE,21.9,36.8,N/A,,Mostly Cloudy,160,2012-12-02 12:35:00
5:55 AM,62.6,37.4,39,29.40,10.0,SSE,16.1,29.9,N/A,,Overcast,150,2012-12-02 12:55:00
6:15 AM,62.6,37.4,39,29.40,10.0,South,11.5,-,N/A,,Overcast,170,2012-12-02 13:15:00
6:35 AM,62.6,37.4,39,29.39,10.0,SSE,17.3,23.0,N/A,,Overcast,160,2012-12-02 13:35:00
6:55 AM,62.6,37.4,39,29.37,10.0,SE,10.4,-,N/A,,Overcast,140,2012-12-02 13:55:00
7:15 AM,62.6,37.4,39,29.36,10.0,SSE,11.5,19.6,N/A,,Overcast,150,2012-12-02 14:15:00
7:35 AM,60.8,37.4,42,29.37,10.0,South,9.2,-,N/A,,Overcast,170,2012-12-02 14:35:00
8:15 AM,62.6,37.4,39,29.40,3.0,SSW,25.3,36.8,N/A,,Overcast,210,2012-12-02 15:15:00
8:35 AM,60.8,39.2,45,29.39,4.0,South,18.4,25.3,N/A,,Overcast,190,2012-12-02 15:35:00
8:55 AM,60.8,39.2,45,29.40,10.0,South,15.0,-,N/A,,Overcast,190,2012-12-02 15:55:00
9:15 AM,59.0,39.2,48,29.40,10.0,South,15.0,20.7,N/A,,Overcast,190,2012-12-02 16:15:00
9:35 AM,59.0,39.2,48,29.41,6.0,South,13.8,-,N/A,,Overcast,180,2012-12-02 16:35:00
9:55 AM,59.0,39.2,48,29.42,3.0,SSW,11.5,-,N/A,,Overcast,210,2012-12-02 16:55:00
10:15 AM,57.2,41.0,55,29.43,3.0,SW,11.5,-,N/A,,Overcast,230,2012-12-02 17:15:00
10:35 AM,57.2,41.0,55,29.45,3.0,West,19.6,25.3,N/A,,Overcast,270,2012-12-02 17:35:00
10:55 AM,51.8,42.8,71,29.48,8.0,WSW,16.1,26.5,0.03,,Overcast,250,2012-12-02 17:55:00
11:15 AM,51.8,41.0,67,29.48,10.0,WSW,9.2,18.4,N/A,,Overcast,240,2012-12-02 18:15:00
11:35 AM,51.8,42.8,71,29.50,10.0,West,9.2,-,N/A,,Overcast,260,2012-12-02 18:35:00
11:55 AM,53.6,42.8,67,29.52,10.0,West,12.7,17.3,N/A,,Overcast,270,2012-12-02 18:55:00
12:15 PM,53.6,41.0,62,29.53,10.0,West,24.2,32.2,N/A,,Mostly Cloudy,270,2012-12-02 19:15:00
12:35 PM,51.8,37.4,58,29.55,10.0,West,23.0,29.9,N/A,,Mostly Cloudy,270,2012-12-02 19:35:00
12:55 PM,50.0,35.6,58,29.56,10.0,West,15.0,24.2,N/A,,Mostly Cloudy,260,2012-12-02 19:55:00
1:15 PM,48.2,35.6,62,29.58,10.0,West,11.5,19.6,N/A,,Overcast,270,2012-12-02 20:15:00
1:35 PM,48.2,35.6,62,29.59,10.0,WNW,6.9,-,N/A,,Overcast,290,2012-12-02 20:35:00
1:55 PM,50.0,33.8,54,29.59,10.0,West,6.9,-,N/A,,Overcast,260,2012-12-02 20:55:00
2:15 PM,51.8,33.8,50,29.61,10.0,West,10.4,17.3,N/A,,Overcast,260,2012-12-02 21:15:00
2:35 PM,51.8,33.8,50,29.64,10.0,West,20.7,28.8,N/A,,Overcast,270,2012-12-02 21:35:00
2:55 PM,51.8,32.0,47,29.65,10.0,West,15.0,19.6,N/A,,Overcast,270,2012-12-02 21:55:00
3:15 PM,50.0,32.0,50,29.67,10.0,West,17.3,20.7,N/A,,Overcast,280,2012-12-02 22:15:00
3:35 PM,51.8,30.2,44,29.67,10.0,West,18.4,25.3,N/A,,Scattered Clouds,270,2012-12-02 22:35:00
3:55 PM,50.0,30.2,47,29.69,10.0,West,20.7,27.6,N/A,,Clear,270,2012-12-02 22:55:00
4:15 PM,48.2,30.2,50,29.71,10.0,WSW,10.4,23.0,N/A,,Clear,240,2012-12-02 23:15:00
4:55 PM,48.2,28.4,46,29.76,10.0,West,15.0,23.0,N/A,,Clear,270,2012-12-02 23:55:00
5:15 PM,48.2,28.4,46,29.78,10.0,West,11.5,-,N/A,,Clear,260,2012-12-03 00:15:00
5:35 PM,46.4,28.4,50,29.81,10.0,NW,6.9,-,N/A,,Clear,310,2012-12-03 00:35:00
5:55 PM,46.4,26.6,46,29.82,10.0,West,10.4,-,N/A,,Clear,270,2012-12-03 00:55:00
6:15 PM,44.6,26.6,49,29.84,10.0,WSW,3.5,-,N/A,,Clear,250,2012-12-03 01:15:00
6:55 PM,44.6,26.6,49,29.86,10.0,West,13.8,-,N/A,,Clear,270,2012-12-03 01:55:00
7:15 PM,44.6,26.6,49,29.89,10.0,West,10.4,-,N/A,,Clear,260,2012-12-03 02:15:00
7:35 PM,42.8,26.6,53,29.89,10.0,West,10.4,-,N/A,,Clear,280,2012-12-03 02:35:00
7:55 PM,42.8,24.8,49,29.90,10.0,WNW,8.1,-,N/A,,Clear,300,2012-12-03 02:55:00
8:15 PM,42.8,24.8,49,29.91,10.0,WSW,8.1,-,N/A,,Clear,250,2012-12-03 03:15:00
8:35 PM,41.0,24.8,53,29.93,10.0,SW,5.8,-,N/A,,Clear,220,2012-12-03 03:35:00
8:55 PM,41.0,24.8,53,29.93,10.0,WSW,5.8,-,N/A,,Clear,240,2012-12-03 03:55:00
9:15 PM,39.2,24.8,56,29.93,10.0,West,8.1,-,N/A,,Clear,260,2012-12-03 04:15:00
9:35 PM,39.2,24.8,56,29.96,10.0,West,5.8,-,N/A,,Clear,260,2012-12-03 04:35:00
9:55 PM,42.8,24.8,49,29.97,10.0,West,8.1,-,N/A,,Clear,260,2012-12-03 04:55:00
10:15 PM,41.0,23.0,49,29.98,10.0,West,8.1,-,N/A,,Clear,280,2012-12-03 05:15:00
10:35 PM,39.2,23.0,52,30.00,10.0,SSE,5.8,-,N/A,,Clear,160,2012-12-03 05:35:00
10:55 PM,37.4,23.0,56,30.02,10.0,SSW,4.6,-,N/A,,Scattered Clouds,200,2012-12-03 05:55:00
11:15 PM,35.6,23.0,60,30.03,10.0,WSW,5.8,-,N/A,,Scattered Clouds,250,2012-12-03 06:15:00
11:35 PM,33.8,23.0,65,30.05,10.0,SE,9.2,-,N/A,,Scattered Clouds,130,2012-12-03 06:35:00
11:55 PM,39.2,24.8,56,30.05,10.0,SSW,5.8,-,N/A,,Mostly Cloudy,200,2012-12-03 06:55:00